AP989 Weather Reports


time (UTC)temp
F
wind
direction
speed
knots
gust
knots
rain 1hr
in
rain 24hr
in
rain mn
in
humidity
%
barometer
mb
20260503040004 50 218 6.1 13.9 0.00 0.00 0.00 62 1008.1
20260503034004 50 212 6.1 8.7 0.00 0.00 0.00 63 1009.0
20260503033004 50 227 6.1 8.7 0.00 0.00 0.00 60 1009.0
20260503032004 52 230 4.3 8.7 0.00 0.00 0.00 59 1009.0
20260503030004 51 188 4.3 6.1 0.00 0.00 0.00 54 1009.0
20260503025004 50 196 4.3 7.8 0.00 0.00 0.00 55 1009.0
20260503023004 51 175 4.3 6.1 0.00 0.00 0.00 53 1009.0
20260503022004 51 172 4.3 7.0 0.00 0.00 0.00 53 1009.0
20260503021004 51 181 4.3 6.1 0.00 0.00 0.00 52 1009.0
20260503020004 52 163 5.2 7.0 0.00 0.00 0.00 51 1009.1
20260503015004 52 177 4.3 7.0 0.00 0.00 0.00 50 1009.1
20260503013004 53 168 4.3 7.0 0.00 0.00 0.00 49 1009.1
20260503012004 54 183 4.3 7.0 0.00 0.00 0.00 49 1009.1
20260503005003 55 208 5.2 10.4 0.00 0.00 0.00 47 1009.3
20260503004003 56 224 5.2 10.4 0.00 0.00 0.00 46 1009.3
20260503003003 56 191 4.3 11.3 0.00 0.00 0.00 48 1009.8
20260503002003 56 205 3.5 11.3 0.00 0.00 0.00 50 1009.8
20260503001003 56 213 4.3 10.4 0.00 0.00 0.00 48 1009.8
20260503000003 57 237 4.3 8.7 0.00 0.00 0.00 50 1009.8
20260502235003 57 229 10.4 13.9 0.00 0.00 0.00 48 1010.7
20260502234003 57 242 8.7 15.6 0.00 0.00 0.00 47 1010.7
20260502233003 57 224 13.9 18.2 0.00 0.00 0.00 47 1010.7
20260502231003 58 214 9.6 15.6 0.00 0.00 0.00 46 1010.7
20260502230003 59 225 10.4 15.6 0.00 0.00 0.00 42 1010.7
20260502225003 58 227 8.7 17.4 0.00 0.00 0.00 45 1010.7
20260502224003 59 248 12.2 17.4 0.00 0.00 0.00 43 1010.7
20260502223003 59 223 10.4 15.6 0.00 0.00 0.00 37 1010.7
20260502222003 59 220 8.7 17.4 0.00 0.00 0.00 41 1010.7
20260502221006 59 199 6.1 13.9 0.00 0.00 0.00 38 1010.7
20260502220002 58 242 6.1 11.3 0.00 0.00 0.00 42 1010.7
20260502215003 58 267 6.1 10.4 0.00 0.00 0.00 43 1010.7
20260502214003 58 209 8.7 15.6 0.00 0.00 0.00 37 1011.4
20260502213003 58 229 8.7 12.2 0.00 0.00 0.00 39 1011.4
20260502212003 58 243 11.3 15.6 0.00 0.00 0.00 39 1011.4
20260502211004 59 237 8.7 14.8 0.00 0.00 0.00 36 1011.4
20260502210002 59 224 7.8 15.6 0.00 0.00 0.00 37 1011.4
20260502205003 60 218 7.8 12.2 0.00 0.00 0.00 33 1011.4
20260502203003 58 217 6.1 12.2 0.00 0.00 0.00 36 1011.9
20260502201003 59 232 8.7 17.4 0.00 0.00 0.00 37 1011.9
20260502194003 58 240 6.1 8.7 0.00 0.00 0.00 35 1012.7
20260502193003 58 229 7.8 14.8 0.00 0.00 0.00 39 1012.7
20260502192003 58 241 8.7 13.0 0.00 0.00 0.00 34 1012.7
20260502190003 57 237 2.6 11.3 0.00 0.00 0.00 35 1013.5
20260502185003 57 248 10.4 13.9 0.00 0.00 0.00 35 1013.5
20260502182003 57 260 5.2 8.7 0.00 0.00 0.00 35 1014.7
20260502181003 55 358 7.8 12.2 0.00 0.00 0.00 33 1014.7
20260502163003 53 262 4.3 11.3 0.00 0.00 0.00 38 1015.4
20260502162003 52 235 5.2 10.4 0.00 0.00 0.00 42 1015.8
20260502161003 52 259 8.7 14.8 0.00 0.00 0.00 42 1015.8
20260502151003 47 265 4.3 7.8 0.00 0.00 0.00 48 1016.0
20260502123003 28 182 1.7 4.3 0.00 0.00 0.00 90 1016.9
20260502121003 26 171 1.7 4.3 0.00 0.00 0.00 90 1016.9
20260502114003 25 171 2.6 2.6 0.00 0.00 0.00 89 1016.9
20260502113003 25 171 1.7 4.3 0.00 0.00 0.00 89 1016.9
20260502112003 25 171 2.6 2.6 0.00 0.00 0.00 89 1016.9
20260502110003 25 171 3.5 4.3 0.00 0.00 0.00 88 1016.9
20260502104003 25 166 2.6 4.3 0.00 0.00 0.00 89 1016.9
20260502101008 25 185 3.5 6.1 0.00 0.00 0.00 88 1016.9
20260502091003 26 198 1.7 2.6 0.00 0.00 0.00 89 1017.1
20260502071003 28 187 1.7 2.6 0.00 0.00 0.00 88 1017.7
20260502070002 28 187 1.7 2.6 0.00 0.00 0.00 87 1017.7
20260502065003 28 187 1.7 2.6 0.00 0.00 0.00 87 1017.7
20260502064003 28 187 1.7 2.6 0.00 0.00 0.00 87 1017.7
20260502062003 28 187 2.6 2.6 0.00 0.00 0.00 87 1017.7
20260502061003 28 179 2.6 2.6 0.00 0.00 0.00 86 1017.7
20260502060003 28 178 1.7 2.6 0.00 0.00 0.00 86 1017.7
20260502055003 29 184 1.7 2.6 0.00 0.00 0.00 85 1017.7
20260502054003 29 184 0.9 2.6 0.00 0.00 0.00 85 1017.7
20260502053003 29 184 1.7 2.6 0.00 0.00 0.00 84 1017.7
20260502052003 29 184 2.6 2.6 0.00 0.00 0.00 84 1017.7
20260502051003 29 181 2.6 4.3 0.00 0.00 0.00 83 1017.7
20260502050003 29 177 2.6 4.3 0.00 0.00 0.00 82 1017.7
20260502045003 29 177 2.6 4.3 0.00 0.00 0.00 82 1017.7
20260502044003 29 190 1.7 2.6 0.00 0.00 0.00 81 1017.7
20260502042003 30 203 1.7 2.6 0.00 0.00 0.00 79 1017.7
20260502041003 30 213 1.7 2.6 0.00 0.00 0.00 77 1017.7